Flag for U.S.A. Weather past 2 weeks in Greensboro, North Carolina, U.S.A.

Now
62 °F

Scattered clouds.


Feels Like: 62 °F
Forecast: 35 / 60 °F
Wind: 6 mph from Southwest

Location: Piedmont Triad International Airport

Current Time: Dec 27, 2014 at 3:52:21 PM

Latest Report: Dec 27, 2014 at 2:54 PM


Visibility: 10 mi

Pressure: 30.19 "Hg

Humidity: 34%

Dew point: 33 °F

Location of GreensboroLocation

Historic Weather in Greensboro — Graph

°F

Greensboro temperature yesterday

Maximum temperature yesterday: 56 °F (at 1:54 PM)
Minimum temperature yesterday: 28 °F (at 7:54 AM)
Average temperature yesterday: 42 °F

Past Weeks' High & Low Weather Summary

 TemperatureHumidityPressure
High63 °F (Dec 24, 9:54 PM)100% (Dec 23, 12:54 AM)30.35 "Hg (Dec 23, 12:54 AM)
Low28 °F (Dec 26, 7:54 AM)18% (Dec 13, 12:54 PM)29.63 "Hg (Dec 24, 8:54 PM)
Average43 °F68%30.09 "Hg
* Reported Dec 12 2:54 PM — Dec 27 2:54 PM, Greensboro, Weather by CustomWeather, © 2014

Note: Actual official high and low records may vary slightly from our data, if they occured in-between our weather recording intervals... More about our weather records

Advertising

Greensboro weather history for previous 24 hours

 ConditionsComfort  
Time TempWeatherWind HumidityBarometerVisibility
2:54 PM
Dec 27
62 °FScattered clouds.6 mph34%30.19 "Hg10 mi
1:54 PM61 °FScattered clouds.9 mph36%30.22 "Hg10 mi
12:54 PM60 °FPassing clouds.6 mph41%30.22 "Hg10 mi
11:54 AM57 °FPassing clouds.9 mph46%30.25 "Hg10 mi
10:54 AM54 °FPassing clouds.9 mph53%30.30 "Hg10 mi
9:54 AM47 °FPassing clouds.3 mph69%30.31 "Hg10 mi
8:54 AM41 °FScattered clouds.5 mph80%30.29 "Hg10 mi
7:54 AM33 °FScattered clouds.7 mph92%30.29 "Hg9 mi
6:54 AM35 °FPassing clouds.3 mph85%30.28 "Hg10 mi
5:54 AM37 °FPassing clouds.3 mph82%30.27 "Hg10 mi
4:54 AM35 °FPassing clouds.7 mph85%30.27 "Hg10 mi
3:54 AM36 °FPassing clouds.7 mph82%30.25 "Hg10 mi
2:54 AM38 °FPassing clouds.5 mph79%30.26 "Hg10 mi
1:54 AM39 °FPassing clouds.3 mph76%30.27 "Hg10 mi
12:54 AM41 °FPassing clouds.6 mph70%30.28 "Hg10 mi
11:54 PM
Dec 26
41 °FPassing clouds.6 mph70%30.30 "Hg10 mi
10:54 PM41 °FPassing clouds.5 mph74%30.30 "Hg10 mi
9:54 PM40 °FPassing clouds.6 mph77%30.29 "Hg10 mi
8:54 PM41 °FPassing clouds.6 mph76%30.30 "Hg10 mi
7:54 PM42 °FPassing clouds.3 mph71%30.31 "Hg10 mi
6:54 PM46 °FPassing clouds.No wind58%30.29 "Hg10 mi
5:54 PM51 °FPassing clouds.3 mph48%30.27 "Hg10 mi
4:54 PM52 °FScattered clouds.3 mph49%30.27 "Hg10 mi
3:54 PM56 °FPassing clouds.6 mph42%30.27 "Hg10 mi
Weather by CustomWeather, © 2014

See weather overviewHow to use our weather pages